DELTA 1 DEB (YO), 227

Orbit data source: Space-Track

DELTA 1 DEB (YO), 227 is space debris in LEO originally from a launch on Thu, 08 Feb 1962 UTC launched from the Air Force Eastern Test Range (AFETR). Debris objects in space refer to the collection of defunct objects orbiting the Earth. Examples of debris include non-operational satellites, rocket bodies, and fragments generated from explosions, collisions, or faulty payload assembly.

Loading next visibility...
DELTA 1 DEB (YO) details
Identifier
227, 1962-002B
Orbit
LEO
Last TLE update16 hours ago
Origin
Flag of USGSFC (US)
ManufacturerRCA/East Windsor
MissionSpacecraft
Bus & MotorUnknown
Mass~1 kg wet, ~1 kg dry
Launch date (UTC)
1962-02-08 (63 years ago)
Launch vehicleUnknown
Launch site
Air Force Eastern Test Range (AFETR)
Object type
Payload
Rocket body
Debris
Shape & HBRUnknown
Radar Cross SectionSmall (<0.1 m²)

Expand to show TLE details & history

TLE from 16 hours ago
0 DELTA 1 DEB (YO)
1   227U 62002B   25037.40104125  .00000705  00000-0  25065-3 0  9998
2   227  48.1474  56.6121 0128198 176.5611 183.6193 14.40171499293609
Epoch: 2025-02-06T09:37Z
Definitive object data (Epoch: 2025-02-06T09:37:29.964Z)
Latitude0.00002°
Longitude135.4591°
Altitude849.567 km
Speed7.382 km/s
True Right ascension03h 46m 26s
True Declination0° 00' 00"
Sunlit
Object was in daylight at TLE epoch
Visualization TLE readout
Latitude9.47797°
Longitude-56.04402°
Altitude668.024 km
Speed7.572 km/s
Apparent Right ascension15h 13m 37s
Apparent Declination-13° 51' 48"
Sunlit
Object is in daylight
Visualization observer readout
Local Sidereal Time03:32:20
Azimuth10.273° NNE
Elevation-63.625°
Doppler factor1
Orbital elements
Apogee altitude850.468 km
Perigee altitude667.476 km
Semi-major axis7,137.109 km
Eccentricity0.0128198
Inclination48.1474°
RAAN56.6121°
Arg. of periapsis176.5611°
True anomaly183.52802°
Mean anomaly183.6193°
Eccentric anomaly183.57352°
Mean motion3.59965 °/min
BSTAR0.00025065
Orbital period100.01 mins
Loading maneuver chart data...
Loading historical data...
Loading historical data...
Loading historical data...
Loading historical data...
Loading historical data...
Loading historical data...
Loading historical data...

DELTA 1 DEB (YO) Visibility forecast

Observer location: undefined°, undefined

Span
Click to sort rows by Start time (UTC) header in descending order
Start Az.
Max El. time (UTC)
Max El. Az.
Max El.
End time (UTC)
End Az.
6 mins2025-02-07 02:25:07.061Z162.358° S2025-02-07 02:28:07.061Z129.03° SE15.31°2025-02-07 02:31:07.061Z95.84° ESE
9 mins2025-02-07 04:08:07.061Z224.324° SW2025-02-07 04:12:07.061Z150.199° SSE43.048°2025-02-07 04:17:07.061Z63.589° ENE
9 mins2025-02-07 05:53:07.061Z275.951° WNW2025-02-07 05:57:07.061Z339.51° N34.873°2025-02-07 06:02:07.061Z54.854° ENE
8 mins2025-02-07 07:39:07.061Z305.563° NW2025-02-07 07:43:07.061Z9.811° NNE29.066°2025-02-07 07:47:07.061Z66.692° ENE
8 mins2025-02-07 09:25:07.061Z309.939° NW2025-02-07 09:28:07.061Z12.474° NNE41.134°2025-02-07 09:33:07.061Z105.485° ESE
7 mins2025-02-07 11:10:07.061Z273.324° WNW2025-02-07 11:13:07.061Z214.944° SW28.866°2025-02-07 11:17:07.061Z159.172° S
|